Regional Weather Roundup
Issued by NWS Newport/Morehead, NC

Current Version | Previous Version | Graphics & Text | Print | Product List | Glossary On
Versions: 1 2 3 4 5 6 7 8 9 10 11 12 13 14 15 16 17 18 19 20 21 22 23 24 25 26 27 28 29 30 31 32 33 34 35 36 37 38 39 40 41 42 43 44 45 46 47 48 49 50
000 ASUS42 KMHX 300313 RWRMHX WEATHER ROUNDUP FOR EASTERN NORTH CAROLINA NATIONAL WEATHER SERVICE NEWPORT/MOREHEAD CITY NC 1100 PM EDT SAT APR 29 2017 NOTE: "FAIR" INDICATES FEW OR NO CLOUDS BELOW 12,000 FEET WITH NO SIGNIFICANT WEATHER AND/OR OBSTRUCTIONS TO VISIBILITY NCZ015>017-031-032-045>047-102-103-300400- NORTH COAST CITY SKY/WX TMP DP RH WIND PRES REMARKS EDENTON CLEAR 76 71 84 SW12 30.18S ELIZABETH CITY CLEAR 75 73 93 SW15G22 30.15S KITTY HAWK CLEAR 74 70 86 SW10G18 30.15S MANTEO CLEAR 74 70 88 SW14 30.18S $$ NCZ045>047-081-094-103-104-300400- CENTRAL COAST CITY SKY/WX TMP DP RH WIND PRES REMARKS FRISCO CLEAR 74 71 91 SW9 30.22R FOG $$ NCZ095-097-098-100-101-300400- SOUTHERN COAST CITY SKY/WX TMP DP RH WIND PRES REMARKS BEAUFORT CLEAR 73 73 100 SW9 30.21S CEDAR ISLAND NOT AVBL JACKSONVILLE CLEAR 73 72 96 S7 30.20S PINEY ISLAND CLEAR N/A N/A N/A SW12 30.21R WILMINGTON PTCLDY 73 70 90 S6 30.22R $$ NCZ011>013-027>030-043-044-078>080-089-090>093-098-300400- COASTAL PLAIN CITY SKY/WX TMP DP RH WIND PRES REMARKS AHOSKIE N/A 75 72 90 S6 30.16S CLINTON MOCLDY 73 71 92 S3 30.20S ELIZABETHTOWN PTCLDY 73 70 89 S6 30.20S GOLDSBORO PTCLDY 75 73 93 S7 30.17S GREENVILLE CLEAR 73 72 94 S9 30.19S HAVELOCK NOT AVBL KENANSVILLE MOCLDY 73 68 83 S3 30.20S KINSTON CLOUDY 74 69 83 S9 30.20S NEW BERN CLEAR 72 71 97 SW7 30.22R RICHLANDS CLEAR 71 69 93 S7 30.21S ROCKY MOUNT CLEAR 76 71 85 S7 30.17S WASHINGTON CLEAR 73 69 88 SW8 30.19S WHITEVILLE CLOUDY 73 70 91 S5 30.20S $$ AMZ130-135-150-152-154-156-158-170-250-252-270-ANZ085-086-088-633-658-670-300400- MARINE OBSERVATIONS STATION/POSITION TIME TEMP WIND PRES WAVE SWELL AIR SEA DIR/SP/G HT/PER HT/PER (UTC) (F) (DEG/KT/KT) (MB) (FT/S) (FT/S) CHESAPEAKE LIGHT NOT AVBL 64 E VA BEACH 0250 63 58 220/ 14/ 16 1021.1 4/ 5 2/ 7 DUCK 0248 75 58 210/ 19/ 24 1020.5 2 E DUCK 0300 60 N/A 2/ 7 OREGON INLET 0248 210/ 20/ 24 N/A 13E OREGON INLT 0248 64 N/A 3/ 5 2/ 7 HATTERAS CG 0248 73 75 210/ 10/ 13 1022.9 DIAMOND BUOY 0250 76 75 230/ 14/ 17 1023.1 3/ 7 2/ 7 CAPE LOOKOUT 0300 73 210/ 7/ 9 1023.0 BEAUFORT LAB 0248 73 72 210/ 8/ 12 1022.5 30 SE NEW RVR IN 0208 73 220/ 6/ 10 1023.6 30 SE NEW RVR IN 0243 73 N/A 3/ 7 27 SE WRIGHTSVLE 0208 74 74 200/ 10/ 12 1022.8 5 SE WRIGHTSVLE 0208 73 72 190/ 8/ 14 1022.9 225 S CAPE HAT 0250 74 76 170/ 10/ 12 1024.8 3/ 7 2/ 7 41 SE CHARLESTON 0250 76 76 160/ 10/ 12 1022.6 3/ 8 2/ 8 $$

USA.gov is the U.S. government's official web portal to all federal, state and local government web resources and services.